contact:dominique.lefevre@mio.osupytheas.fr, maurice.libes@osupytheas.fr, didier.mallarino@osupytheas.fr
Project:EMSO http://www.emso-fr.org/EMSO-France
Depth: 2436.0 m
Title:EMSO Ligure Ouest : Data MII capteur CSTAR
DateTime,Latitude,Longitude,Instrument_Serial,Reference_Counts,Signal_Counts,Corrected_Signal_raw_counts,Calculated_Beam_c_inverse_meters,Internal_thermistor_counts
DateTime,Latitude,Longitude,Instrument_Serial,Reference_Counts,Signal_Counts,Corrected_Signal_raw_counts,Calculated_Beam_c_inverse_meters,Internal_thermistor_counts
2019-07-02T00:02:53,42.805,6.029,CST-1368DR,8829,12354,15499,0.030,551
2019-07-02T00:05:55,42.805,6.029,CST-1368DR,8829,12354,15499,0.030,551
2019-07-02T00:08:56,42.805,6.029,CST-1368DR,8829,12353,15498,0.030,551
2019-07-02T00:11:58,42.805,6.029,CST-1368DR,8829,12355,15500,0.030,551
2019-07-02T00:14:59,42.805,6.029,CST-1368DR,8829,12354,15499,0.030,551
2019-07-02T00:18:00,42.805,6.029,CST-1368DR,8829,12352,15497,0.031,551
2019-07-02T00:21:02,42.805,6.029,CST-1368DR,8829,12354,15500,0.030,551
2019-07-02T00:24:03,42.805,6.029,CST-1368DR,8829,12354,15499,0.030,551
2019-07-02T00:27:05,42.805,6.029,CST-1368DR,8828,12353,15499,0.030,551
2019-07-02T00:30:06,42.805,6.029,CST-1368DR,8828,12354,15501,0.030,551
2019-07-02T00:33:07,42.805,6.029,CST-1368DR,8828,12354,15501,0.030,551
2019-07-02T00:36:09,42.805,6.029,CST-1368DR,8828,12354,15501,0.030,551
2019-07-02T00:39:10,42.805,6.029,CST-1368DR,8828,12351,15497,0.031,551
2019-07-02T00:42:12,42.805,6.029,CST-1368DR,8828,12354,15501,0.030,551
2019-07-02T00:45:13,42.805,6.029,CST-1368DR,8828,12352,15498,0.030,551
2019-07-02T00:48:14,42.805,6.029,CST-1368DR,8828,12354,15501,0.030,551
2019-07-02T00:51:16,42.805,6.029,CST-1368DR,8828,12353,15499,0.030,550
2019-07-02T00:54:17,42.805,6.029,CST-1368DR,8828,12354,15500,0.030,551
2019-07-02T00:57:19,42.805,6.029,CST-1368DR,8828,12353,15500,0.030,551
2019-07-02T01:00:20,42.805,6.029,CST-1368DR,8828,12352,15498,0.030,551
2019-07-02T01:03:21,42.805,6.029,CST-1368DR,8828,12351,15497,0.031,551
2019-07-02T01:06:23,42.805,6.029,CST-1368DR,8828,12351,15497,0.031,551
2019-07-02T01:09:24,42.805,6.029,CST-1368DR,8828,12348,15493,0.032,551
2019-07-02T01:12:26,42.805,6.029,CST-1368DR,8828,12353,15499,0.030,551
2019-07-02T01:15:27,42.805,6.029,CST-1368DR,8828,12353,15499,0.030,551
2019-07-02T01:18:29,42.805,6.029,CST-1368DR,8828,12353,15500,0.030,551
2019-07-02T01:21:30,42.805,6.029,CST-1368DR,8828,12353,15499,0.030,551
2019-07-02T01:24:31,42.805,6.029,CST-1368DR,8828,12353,15500,0.030,551
2019-07-02T01:27:33,42.805,6.029,CST-1368DR,8828,12350,15496,0.031,551
2019-07-02T01:30:34,42.805,6.029,CST-1368DR,8828,12353,15500,0.030,551
2019-07-02T01:33:36,42.805,6.029,CST-1368DR,8828,12353,15500,0.030,551
2019-07-02T01:36:37,42.805,6.029,CST-1368DR,8828,12352,15499,0.030,551
2019-07-02T01:39:38,42.805,6.029,CST-1368DR,8828,12353,15500,0.030,551
2019-07-02T01:42:40,42.805,6.029,CST-1368DR,8828,12353,15499,0.030,551
2019-07-02T01:45:41,42.805,6.029,CST-1368DR,8828,12353,15499,0.030,551
2019-07-02T01:48:43,42.805,6.029,CST-1368DR,8828,12353,15499,0.030,551
2019-07-02T01:51:44,42.805,6.029,CST-1368DR,8828,12353,15500,0.030,551
2019-07-02T01:54:45,42.805,6.029,CST-1368DR,8828,12353,15499,0.030,551
2019-07-02T01:57:47,42.805,6.029,CST-1368DR,8828,12353,15499,0.030,551
2019-07-02T02:00:48,42.805,6.029,CST-1368DR,8827,12353,15501,0.030,551
2019-07-02T02:03:50,42.805,6.029,CST-1368DR,8827,12353,15501,0.030,551
2019-07-02T02:06:51,42.805,6.029,CST-1368DR,8827,12352,15500,0.030,551
2019-07-02T02:09:52,42.805,6.029,CST-1368DR,8827,12350,15498,0.030,551
2019-07-02T02:12:54,42.805,6.029,CST-1368DR,8827,12352,15500,0.030,551
2019-07-02T02:15:55,42.805,6.029,CST-1368DR,8827,12353,15502,0.029,551
2019-07-02T02:18:57,42.805,6.029,CST-1368DR,8827,12351,15498,0.030,551
2019-07-02T02:21:58,42.805,6.029,CST-1368DR,8827,12353,15501,0.030,551
2019-07-02T02:25:00,42.805,6.029,CST-1368DR,8827,12352,15500,0.030,551
2019-07-02T02:28:01,42.805,6.029,CST-1368DR,8827,12351,15498,0.030,551
2019-07-02T02:31:02,42.805,6.029,CST-1368DR,8827,12353,15501,0.030,551
2019-07-02T02:34:04,42.805,6.029,CST-1368DR,8827,12352,15500,0.030,551
2019-07-02T02:37:05,42.805,6.029,CST-1368DR,8827,12353,15501,0.030,551
2019-07-02T02:40:07,42.805,6.029,CST-1368DR,8827,12352,15499,0.030,551
2019-07-02T02:43:08,42.805,6.029,CST-1368DR,8827,12353,15501,0.030,551
2019-07-02T02:46:09,42.805,6.029,CST-1368DR,8827,12351,15498,0.030,551
2019-07-02T02:49:11,42.805,6.029,CST-1368DR,8827,12351,15498,0.030,551
2019-07-02T02:52:12,42.805,6.029,CST-1368DR,8827,12349,15496,0.031,551
2019-07-02T02:55:14,42.805,6.029,CST-1368DR,8827,12353,15501,0.030,551
2019-07-02T02:58:15,42.805,6.029,CST-1368DR,8827,12351,15498,0.030,551
2019-07-02T03:01:16,42.805,6.029,CST-1368DR,8827,12352,15499,0.030,551
2019-07-02T03:04:18,42.805,6.029,CST-1368DR,8827,12352,15499,0.030,551
2019-07-02T03:07:19,42.805,6.029,CST-1368DR,8827,12349,15496,0.031,551
2019-07-02T03:10:21,42.805,6.029,CST-1368DR,8827,12351,15499,0.030,551
2019-07-02T03:13:22,42.805,6.029,CST-1368DR,8827,12352,15500,0.030,551
2019-07-02T03:16:23,42.805,6.029,CST-1368DR,8827,12351,15498,0.030,550
2019-07-02T03:19:25,42.805,6.029,CST-1368DR,8827,12352,15499,0.030,551
2019-07-02T03:22:26,42.805,6.029,CST-1368DR,8827,12350,15497,0.031,551
2019-07-02T03:25:28,42.805,6.029,CST-1368DR,8827,12350,15497,0.031,551
2019-07-02T03:28:29,42.805,6.029,CST-1368DR,8827,12351,15498,0.030,551
2019-07-02T03:31:31,42.805,6.029,CST-1368DR,8827,12351,15498,0.030,550
2019-07-02T03:34:32,42.805,6.029,CST-1368DR,8827,12350,15497,0.031,551
2019-07-02T03:37:33,42.805,6.029,CST-1368DR,8827,12351,15498,0.030,551
2019-07-02T03:40:35,42.805,6.029,CST-1368DR,8827,12349,15496,0.031,551
2019-07-02T03:43:36,42.805,6.029,CST-1368DR,8827,12351,15498,0.030,551
2019-07-02T03:46:38,42.805,6.029,CST-1368DR,8826,12350,15499,0.030,551
2019-07-02T03:49:39,42.805,6.029,CST-1368DR,8827,12350,15497,0.031,551
2019-07-02T03:52:40,42.805,6.029,CST-1368DR,8826,12351,15500,0.030,551
2019-07-02T03:55:42,42.805,6.029,CST-1368DR,8826,12351,15500,0.030,551
2019-07-02T03:58:43,42.805,6.029,CST-1368DR,8826,12351,15500,0.030,551
2019-07-02T04:01:45,42.805,6.029,CST-1368DR,8826,12351,15500,0.030,551
2019-07-02T04:04:46,42.805,6.029,CST-1368DR,8826,12350,15499,0.030,551
2019-07-02T04:07:47,42.805,6.029,CST-1368DR,8826,12351,15500,0.030,551
2019-07-02T04:10:49,42.805,6.029,CST-1368DR,8826,12350,15499,0.030,551
2019-07-02T04:13:50,42.805,6.029,CST-1368DR,8826,12349,15498,0.030,551
2019-07-02T04:16:52,42.805,6.029,CST-1368DR,8826,12350,15499,0.030,551
2019-07-02T04:19:53,42.805,6.029,CST-1368DR,8826,12349,15498,0.030,551
2019-07-02T04:22:54,42.805,6.029,CST-1368DR,8826,12349,15498,0.030,551
2019-07-02T04:25:56,42.805,6.029,CST-1368DR,8826,12350,15498,0.030,551
2019-07-02T04:28:57,42.805,6.029,CST-1368DR,8826,12350,15499,0.030,551
2019-07-02T04:31:59,42.805,6.029,CST-1368DR,8826,12350,15499,0.030,551
2019-07-02T04:35:00,42.805,6.029,CST-1368DR,8826,12349,15497,0.031,551
2019-07-02T04:38:02,42.805,6.029,CST-1368DR,8826,12348,15497,0.031,551
2019-07-02T04:41:03,42.805,6.029,CST-1368DR,8826,12350,15499,0.030,551
2019-07-02T04:44:04,42.805,6.029,CST-1368DR,8826,12349,15498,0.030,551
2019-07-02T04:47:06,42.805,6.029,CST-1368DR,8826,12349,15498,0.030,550
2019-07-02T04:50:07,42.805,6.029,CST-1368DR,8826,12349,15498,0.030,551
2019-07-02T04:53:09,42.805,6.029,CST-1368DR,8826,12350,15498,0.030,550
2019-07-02T04:56:10,42.805,6.029,CST-1368DR,8826,12344,15492,0.032,551
2019-07-02T04:59:11,42.805,6.029,CST-1368DR,8826,12350,15499,0.030,551
2019-07-02T05:02:13,42.805,6.029,CST-1368DR,8826,12348,15496,0.031,551
2019-07-02T05:05:14,42.805,6.029,CST-1368DR,8826,12347,15495,0.031,551
2019-07-02T05:08:16,42.805,6.029,CST-1368DR,8826,12349,15497,0.031,551
2019-07-02T05:11:17,42.805,6.029,CST-1368DR,8826,12347,15495,0.031,551
2019-07-02T05:14:18,42.805,6.029,CST-1368DR,8826,12349,15497,0.031,551
2019-07-02T05:17:20,42.805,6.029,CST-1368DR,8826,12348,15497,0.031,551
2019-07-02T05:20:21,42.805,6.029,CST-1368DR,8826,12349,15498,0.030,551
2019-07-02T05:23:23,42.805,6.029,CST-1368DR,8825,12346,15495,0.031,551
2019-07-02T05:26:24,42.805,6.029,CST-1368DR,8826,12348,15496,0.031,551
2019-07-02T05:29:25,42.805,6.029,CST-1368DR,8825,12348,15498,0.030,551
2019-07-02T05:32:27,42.805,6.029,CST-1368DR,8825,12346,15495,0.031,551
2019-07-02T05:35:28,42.805,6.029,CST-1368DR,8825,12348,15498,0.030,551
2019-07-02T05:38:30,42.805,6.029,CST-1368DR,8825,12350,15500,0.030,551
2019-07-02T05:41:31,42.805,6.029,CST-1368DR,8825,12349,15499,0.030,551
2019-07-02T05:44:33,42.805,6.029,CST-1368DR,8825,12348,15498,0.030,551
2019-07-02T05:47:34,42.805,6.029,CST-1368DR,8825,12348,15498,0.030,551
2019-07-02T05:50:35,42.805,6.029,CST-1368DR,8825,12348,15498,0.030,551
2019-07-02T05:53:37,42.805,6.029,CST-1368DR,8825,12349,15499,0.030,551
2019-07-02T05:56:38,42.805,6.029,CST-1368DR,8825,12349,15499,0.030,551
2019-07-02T05:59:40,42.805,6.029,CST-1368DR,8825,12348,15498,0.030,551
2019-07-02T06:02:41,42.805,6.029,CST-1368DR,8825,12349,15499,0.030,551
2019-07-02T06:05:42,42.805,6.029,CST-1368DR,8825,12347,15497,0.031,551
2019-07-02T06:08:44,42.805,6.029,CST-1368DR,8825,12348,15498,0.030,551
2019-07-02T06:11:45,42.805,6.029,CST-1368DR,8825,12348,15498,0.030,551
2019-07-02T06:14:47,42.805,6.029,CST-1368DR,8825,12348,15498,0.030,551
2019-07-02T06:17:48,42.805,6.029,CST-1368DR,8825,12348,15498,0.030,551
2019-07-02T06:20:49,42.805,6.029,CST-1368DR,8825,12347,15497,0.031,551
2019-07-02T06:23:51,42.805,6.029,CST-1368DR,8825,12348,15498,0.030,551
2019-07-02T06:26:52,42.805,6.029,CST-1368DR,8825,12348,15498,0.030,551
2019-07-02T06:29:54,42.805,6.029,CST-1368DR,8825,12348,15498,0.030,551
2019-07-02T06:32:55,42.805,6.029,CST-1368DR,8825,12348,15498,0.030,550
2019-07-02T06:35:56,42.805,6.029,CST-1368DR,8825,12348,15498,0.030,551
2019-07-02T06:38:58,42.805,6.029,CST-1368DR,8825,12347,15497,0.031,551
2019-07-02T06:41:59,42.805,6.029,CST-1368DR,8825,12348,15498,0.030,551
2019-07-02T06:45:01,42.805,6.029,CST-1368DR,8824,12348,15499,0.030,550
2019-07-02T06:48:02,42.805,6.029,CST-1368DR,8825,12347,15496,0.031,551
2019-07-02T06:51:04,42.805,6.029,CST-1368DR,8824,12347,15498,0.030,551
2019-07-02T06:54:05,42.805,6.029,CST-1368DR,8825,12348,15498,0.030,551
2019-07-02T06:57:06,42.805,6.029,CST-1368DR,8824,12341,15491,0.032,550
2019-07-02T07:00:08,42.805,6.029,CST-1368DR,8824,12346,15497,0.031,551
2019-07-02T07:03:09,42.805,6.029,CST-1368DR,8824,12345,15495,0.031,551
2019-07-02T07:06:11,42.805,6.029,CST-1368DR,8824,12346,15498,0.030,551
2019-07-02T07:09:12,42.805,6.029,CST-1368DR,8824,12346,15497,0.031,550
2019-07-02T07:12:13,42.805,6.029,CST-1368DR,8824,12347,15498,0.030,551
2019-07-02T07:15:15,42.805,6.029,CST-1368DR,8824,12342,15492,0.032,551
2019-07-02T07:18:16,42.805,6.029,CST-1368DR,8824,12344,15495,0.031,551
2019-07-02T07:21:18,42.805,6.029,CST-1368DR,8824,12348,15500,0.030,551
2019-07-02T07:24:19,42.805,6.029,CST-1368DR,8824,12347,15498,0.030,551
2019-07-02T07:27:20,42.805,6.029,CST-1368DR,8824,12347,15498,0.030,551
2019-07-02T07:30:22,42.805,6.029,CST-1368DR,8824,12346,15497,0.031,551
2019-07-02T07:33:23,42.805,6.029,CST-1368DR,8824,12347,15499,0.030,551
2019-07-02T07:36:25,42.805,6.029,CST-1368DR,8824,12347,15498,0.030,551
2019-07-02T07:39:26,42.805,6.029,CST-1368DR,8824,12347,15498,0.030,551
2019-07-02T07:42:27,42.805,6.029,CST-1368DR,8824,12347,15499,0.030,551
2019-07-02T07:45:29,42.805,6.029,CST-1368DR,8824,12347,15498,0.030,551
2019-07-02T07:48:30,42.805,6.029,CST-1368DR,8824,12346,15498,0.030,551
2019-07-02T07:51:32,42.805,6.029,CST-1368DR,8824,12346,15498,0.030,550
2019-07-02T07:54:33,42.805,6.029,CST-1368DR,8824,12346,15497,0.031,551
2019-07-02T07:57:35,42.805,6.029,CST-1368DR,8824,12345,15495,0.031,551
2019-07-02T08:00:36,42.805,6.029,CST-1368DR,8824,12346,15497,0.031,551
2019-07-02T08:03:37,42.805,6.029,CST-1368DR,8824,12346,15498,0.030,551
2019-07-02T08:06:39,42.805,6.029,CST-1368DR,8824,12346,15497,0.031,551
2019-07-02T08:09:40,42.805,6.029,CST-1368DR,8824,12346,15497,0.031,551
2019-07-02T08:12:42,42.805,6.029,CST-1368DR,8824,12343,15494,0.031,551
2019-07-02T08:15:43,42.805,6.029,CST-1368DR,8824,12346,15498,0.030,551
2019-07-02T08:18:44,42.805,6.029,CST-1368DR,8824,12345,15496,0.031,551
2019-07-02T08:21:46,42.805,6.029,CST-1368DR,8824,12344,15495,0.031,551
2019-07-02T08:24:47,42.805,6.029,CST-1368DR,8824,12346,15498,0.030,551
2019-07-02T08:27:49,42.805,6.029,CST-1368DR,8824,12345,15496,0.031,551
2019-07-02T08:30:50,42.805,6.029,CST-1368DR,8824,12346,15497,0.031,551
2019-07-02T08:33:51,42.805,6.029,CST-1368DR,8824,12342,15493,0.032,551
2019-07-02T08:36:53,42.805,6.029,CST-1368DR,8824,12345,15496,0.031,551
2019-07-02T08:39:54,42.805,6.029,CST-1368DR,8824,12346,15497,0.031,550
2019-07-02T08:42:56,42.805,6.029,CST-1368DR,8824,12346,15497,0.031,550
2019-07-02T08:45:57,42.805,6.029,CST-1368DR,8823,12344,15497,0.031,551
2019-07-02T08:48:59,42.805,6.029,CST-1368DR,8823,12345,15498,0.030,551
2019-07-02T08:52:00,42.805,6.029,CST-1368DR,8824,12346,15497,0.031,551
2019-07-02T08:55:01,42.805,6.029,CST-1368DR,8823,12340,15491,0.032,551
2019-07-02T08:58:03,42.805,6.029,CST-1368DR,8823,12344,15496,0.031,551
2019-07-02T09:01:04,42.805,6.029,CST-1368DR,8823,12345,15498,0.030,551
2019-07-02T09:04:06,42.805,6.029,CST-1368DR,8823,12343,15495,0.031,551
2019-07-02T09:07:07,42.805,6.029,CST-1368DR,8823,12345,15497,0.031,551
2019-07-02T09:10:08,42.805,6.029,CST-1368DR,8823,12344,15496,0.031,551
2019-07-02T09:13:10,42.805,6.029,CST-1368DR,8823,12346,15498,0.030,551
2019-07-02T09:16:11,42.805,6.029,CST-1368DR,8823,12344,15496,0.031,550
2019-07-02T09:19:13,42.805,6.029,CST-1368DR,8823,12346,15499,0.030,551
2019-07-02T09:22:14,42.805,6.029,CST-1368DR,8823,12345,15498,0.030,551
2019-07-02T09:25:15,42.805,6.029,CST-1368DR,8823,12345,15498,0.030,551
2019-07-02T09:28:17,42.805,6.029,CST-1368DR,8823,12346,15498,0.030,551
2019-07-02T09:31:18,42.805,6.029,CST-1368DR,8823,12345,15498,0.030,551
2019-07-02T09:34:20,42.805,6.029,CST-1368DR,8823,12343,15495,0.031,551
2019-07-02T09:37:21,42.805,6.029,CST-1368DR,8823,12345,15497,0.031,551
2019-07-02T09:40:22,42.805,6.029,CST-1368DR,8823,12344,15497,0.031,551
2019-07-02T09:43:24,42.805,6.029,CST-1368DR,8823,12339,15489,0.033,551
2019-07-02T09:46:25,42.805,6.029,CST-1368DR,8823,12342,15494,0.031,551
2019-07-02T09:49:27,42.805,6.029,CST-1368DR,8823,12346,15499,0.030,551
2019-07-02T09:52:28,42.805,6.029,CST-1368DR,8823,12344,15497,0.031,551
2019-07-02T09:55:30,42.805,6.029,CST-1368DR,8823,12345,15498,0.030,551
2019-07-02T09:58:31,42.805,6.029,CST-1368DR,8823,12345,15497,0.031,551
2019-07-02T10:01:32,42.805,6.029,CST-1368DR,8823,12345,15498,0.030,551
2019-07-02T10:04:34,42.805,6.029,CST-1368DR,8823,12345,15497,0.031,551
2019-07-02T10:07:35,42.805,6.029,CST-1368DR,8823,12345,15497,0.031,550
2019-07-02T10:10:37,42.805,6.029,CST-1368DR,8823,12344,15497,0.031,551
2019-07-02T10:13:38,42.805,6.029,CST-1368DR,8823,12341,15492,0.032,551
2019-07-02T10:16:39,42.805,6.029,CST-1368DR,8823,12344,15497,0.031,551
2019-07-02T10:19:41,42.805,6.029,CST-1368DR,8823,12343,15495,0.031,551
2019-07-02T10:22:42,42.805,6.029,CST-1368DR,8823,12344,15496,0.031,551
2019-07-02T10:25:44,42.805,6.029,CST-1368DR,8823,12345,15498,0.030,551
2019-07-02T10:28:45,42.805,6.029,CST-1368DR,8823,12344,15496,0.031,551
2019-07-02T10:31:46,42.805,6.029,CST-1368DR,8823,12344,15497,0.031,551
2019-07-02T10:34:48,42.805,6.029,CST-1368DR,8823,12344,15496,0.031,551
2019-07-02T10:37:49,42.805,6.029,CST-1368DR,8823,12344,15497,0.031,551
2019-07-02T10:40:51,42.805,6.029,CST-1368DR,8823,12344,15496,0.031,551
2019-07-02T10:43:52,42.805,6.029,CST-1368DR,8822,12337,15489,0.033,551
2019-07-02T10:46:53,42.805,6.029,CST-1368DR,8823,12344,15496,0.031,551
2019-07-02T10:49:55,42.805,6.029,CST-1368DR,8822,12344,15497,0.031,551
2019-07-02T10:52:56,42.805,6.029,CST-1368DR,8822,12343,15497,0.031,551
2019-07-02T10:55:58,42.805,6.029,CST-1368DR,8823,12344,15496,0.031,551
2019-07-02T10:58:59,42.805,6.029,CST-1368DR,8823,12345,15497,0.031,551
2019-07-02T11:02:01,42.805,6.029,CST-1368DR,8822,12343,15497,0.031,551
2019-07-02T11:05:02,42.805,6.029,CST-1368DR,8823,12345,15497,0.031,551
2019-07-02T11:08:03,42.805,6.029,CST-1368DR,8822,12345,15499,0.030,551
2019-07-02T11:11:05,42.805,6.029,CST-1368DR,8822,12343,15497,0.031,551
2019-07-02T11:14:06,42.805,6.029,CST-1368DR,8822,12345,15499,0.030,551
2019-07-02T11:17:08,42.805,6.029,CST-1368DR,8822,12343,15497,0.031,551
2019-07-02T11:20:09,42.805,6.029,CST-1368DR,8822,12344,15498,0.030,551
2019-07-02T11:23:10,42.805,6.029,CST-1368DR,8822,12344,15498,0.030,551
2019-07-02T11:26:12,42.805,6.029,CST-1368DR,8822,12344,15497,0.031,551
2019-07-02T11:29:13,42.805,6.029,CST-1368DR,8822,12343,15497,0.031,551
2019-07-02T11:32:15,42.805,6.029,CST-1368DR,8822,12344,15498,0.030,551
2019-07-02T11:35:16,42.805,6.029,CST-1368DR,8822,12344,15498,0.030,551
2019-07-02T11:38:17,42.805,6.029,CST-1368DR,8822,12344,15497,0.031,551
2019-07-02T11:41:19,42.805,6.029,CST-1368DR,8822,12344,15497,0.031,551
2019-07-02T11:44:20,42.805,6.029,CST-1368DR,8822,12343,15497,0.031,551
2019-07-02T11:47:22,42.805,6.029,CST-1368DR,8822,12345,15499,0.030,551
2019-07-02T11:50:23,42.805,6.029,CST-1368DR,8822,12343,15497,0.031,551
2019-07-02T11:53:24,42.805,6.029,CST-1368DR,8822,12344,15497,0.031,551
2019-07-02T11:56:26,42.805,6.029,CST-1368DR,8822,12344,15498,0.030,550
2019-07-02T11:59:27,42.805,6.029,CST-1368DR,8822,12344,15497,0.031,551
2019-07-02T12:02:29,42.805,6.029,CST-1368DR,8822,12344,15498,0.030,551
2019-07-02T12:05:30,42.805,6.029,CST-1368DR,8822,12343,15497,0.031,551
2019-07-02T12:08:32,42.805,6.029,CST-1368DR,8822,12343,15497,0.031,550
2019-07-02T12:11:33,42.805,6.029,CST-1368DR,8822,12343,15496,0.031,551
2019-07-02T12:14:34,42.805,6.029,CST-1368DR,8822,12344,15498,0.030,551
2019-07-02T12:17:36,42.805,6.029,CST-1368DR,8822,12344,15498,0.030,551
2019-07-02T12:20:37,42.805,6.029,CST-1368DR,8822,12343,15496,0.031,551
2019-07-02T12:23:39,42.805,6.029,CST-1368DR,8822,12343,15496,0.031,551
2019-07-02T12:26:40,42.805,6.029,CST-1368DR,8822,12341,15495,0.031,550
2019-07-02T12:29:41,42.805,6.029,CST-1368DR,8822,12343,15497,0.031,551
2019-07-02T12:32:43,42.805,6.029,CST-1368DR,8822,12341,15494,0.031,551
2019-07-02T12:35:44,42.805,6.029,CST-1368DR,8822,12343,15497,0.031,551
2019-07-02T12:38:46,42.805,6.029,CST-1368DR,8822,12344,15498,0.030,550
2019-07-02T12:41:47,42.805,6.029,CST-1368DR,8821,12340,15494,0.031,551
2019-07-02T12:44:48,42.805,6.029,CST-1368DR,8822,12343,15496,0.031,551
2019-07-02T12:47:50,42.805,6.029,CST-1368DR,8821,12343,15499,0.030,551
2019-07-02T12:50:51,42.805,6.029,CST-1368DR,8821,12342,15497,0.031,551
2019-07-02T12:53:53,42.805,6.029,CST-1368DR,8821,12342,15497,0.031,550
2019-07-02T12:56:54,42.805,6.029,CST-1368DR,8821,12343,15498,0.030,550
2019-07-02T12:59:55,42.805,6.029,CST-1368DR,8821,12343,15498,0.030,551
2019-07-02T13:02:57,42.805,6.029,CST-1368DR,8821,12342,15497,0.031,551
2019-07-02T13:05:58,42.805,6.029,CST-1368DR,8821,12342,15497,0.031,551
2019-07-02T13:09:00,42.805,6.029,CST-1368DR,8821,12343,15498,0.030,550
2019-07-02T13:12:01,42.805,6.029,CST-1368DR,8821,12343,15498,0.030,551
2019-07-02T13:15:03,42.805,6.029,CST-1368DR,8821,12342,15497,0.031,551
2019-07-02T13:18:04,42.805,6.029,CST-1368DR,8821,12343,15498,0.030,550
2019-07-02T13:21:05,42.805,6.029,CST-1368DR,8821,12343,15498,0.030,551
2019-07-02T13:24:07,42.805,6.029,CST-1368DR,8821,12343,15498,0.030,551
2019-07-02T13:27:08,42.805,6.029,CST-1368DR,8821,12342,15497,0.031,551
2019-07-02T13:30:10,42.805,6.029,CST-1368DR,8821,12344,15499,0.030,551
2019-07-02T13:33:11,42.805,6.029,CST-1368DR,8821,12344,15499,0.030,551
2019-07-02T13:36:12,42.805,6.029,CST-1368DR,8821,12343,15498,0.030,550
2019-07-02T13:39:14,42.805,6.029,CST-1368DR,8821,12343,15498,0.030,551
2019-07-02T13:42:15,42.805,6.029,CST-1368DR,8821,12341,15496,0.031,551
2019-07-02T13:45:17,42.805,6.029,CST-1368DR,8821,12342,15497,0.031,551
2019-07-02T13:48:18,42.805,6.029,CST-1368DR,8821,12342,15496,0.031,551
2019-07-02T13:51:19,42.805,6.029,CST-1368DR,8821,12342,15497,0.031,551
2019-07-02T13:54:21,42.805,6.029,CST-1368DR,8821,12342,15497,0.031,551
2019-07-02T13:57:22,42.805,6.029,CST-1368DR,8821,12342,15496,0.031,551
2019-07-02T14:00:24,42.805,6.029,CST-1368DR,8821,12341,15495,0.031,551
2019-07-02T14:03:25,42.805,6.029,CST-1368DR,8821,12340,15494,0.031,551
2019-07-02T14:06:26,42.805,6.029,CST-1368DR,8820,12341,15497,0.031,551
2019-07-02T14:09:28,42.805,6.029,CST-1368DR,8821,12341,15496,0.031,551
2019-07-02T14:12:29,42.805,6.029,CST-1368DR,8820,12342,15499,0.030,551
2019-07-02T14:15:31,42.805,6.029,CST-1368DR,8821,12342,15497,0.031,551
2019-07-02T14:18:32,42.805,6.029,CST-1368DR,8820,12338,15494,0.031,551
2019-07-02T14:21:34,42.805,6.029,CST-1368DR,8820,12341,15497,0.031,551
2019-07-02T14:24:35,42.805,6.029,CST-1368DR,8820,12341,15497,0.031,551
2019-07-02T14:27:36,42.805,6.029,CST-1368DR,8820,12341,15498,0.030,551
2019-07-02T14:30:38,42.805,6.029,CST-1368DR,8820,12342,15499,0.030,551
2019-07-02T14:33:39,42.805,6.029,CST-1368DR,8820,12340,15496,0.031,551
2019-07-02T14:36:41,42.805,6.029,CST-1368DR,8820,12341,15497,0.031,551
2019-07-02T14:39:42,42.805,6.029,CST-1368DR,8820,12341,15497,0.031,551
2019-07-02T14:42:43,42.805,6.029,CST-1368DR,8820,12340,15496,0.031,551
2019-07-02T14:45:45,42.805,6.029,CST-1368DR,8820,12341,15497,0.031,551
2019-07-02T14:48:46,42.805,6.029,CST-1368DR,8820,12340,15496,0.031,551
2019-07-02T14:51:48,42.805,6.029,CST-1368DR,8820,12341,15497,0.031,551
2019-07-02T14:54:49,42.805,6.029,CST-1368DR,8820,12339,15494,0.031,551
2019-07-02T14:57:50,42.805,6.029,CST-1368DR,8820,12337,15492,0.032,551
2019-07-02T15:00:52,42.805,6.029,CST-1368DR,8820,12341,15497,0.031,551
2019-07-02T15:03:53,42.805,6.029,CST-1368DR,8820,12340,15496,0.031,551
2019-07-02T15:06:55,42.805,6.029,CST-1368DR,8820,12336,15491,0.032,551
2019-07-02T15:09:56,42.805,6.029,CST-1368DR,8820,12340,15496,0.031,551
2019-07-02T15:12:57,42.805,6.029,CST-1368DR,8820,12338,15494,0.031,551
2019-07-02T15:15:59,42.805,6.029,CST-1368DR,8820,12341,15498,0.030,551
2019-07-02T15:19:00,42.805,6.029,CST-1368DR,8820,12341,15497,0.031,551
2019-07-02T15:22:02,42.805,6.029,CST-1368DR,8820,12341,15497,0.031,551
2019-07-02T15:25:03,42.805,6.029,CST-1368DR,8820,12340,15496,0.031,551
2019-07-02T15:28:05,42.805,6.029,CST-1368DR,8820,12341,15497,0.031,551
2019-07-02T15:31:06,42.805,6.029,CST-1368DR,8819,12340,15497,0.031,551
2019-07-02T15:34:07,42.805,6.029,CST-1368DR,8820,12341,15497,0.031,551
2019-07-02T15:37:09,42.805,6.029,CST-1368DR,8819,12340,15498,0.030,551
2019-07-02T15:40:10,42.805,6.029,CST-1368DR,8819,12339,15497,0.031,551
2019-07-02T15:43:12,42.805,6.029,CST-1368DR,8819,12340,15498,0.030,551
2019-07-02T15:46:13,42.805,6.029,CST-1368DR,8819,12340,15498,0.030,551
2019-07-02T15:49:14,42.805,6.029,CST-1368DR,8819,12341,15499,0.030,551
2019-07-02T15:52:16,42.805,6.029,CST-1368DR,8819,12339,15497,0.031,551
2019-07-02T15:55:17,42.805,6.029,CST-1368DR,8819,12337,15494,0.031,550
2019-07-02T15:58:19,42.805,6.029,CST-1368DR,8819,12340,15498,0.030,551
2019-07-02T16:01:20,42.805,6.029,CST-1368DR,8819,12339,15497,0.031,551
2019-07-02T16:04:21,42.805,6.029,CST-1368DR,8819,12340,15498,0.030,551
2019-07-02T16:07:23,42.805,6.029,CST-1368DR,8819,12339,15497,0.031,551
2019-07-02T16:10:24,42.805,6.029,CST-1368DR,8819,12339,15497,0.031,551
2019-07-02T16:13:26,42.805,6.029,CST-1368DR,8819,12339,15497,0.031,551
2019-07-02T16:16:27,42.805,6.029,CST-1368DR,8819,12339,15497,0.031,551
2019-07-02T16:19:29,42.805,6.029,CST-1368DR,8819,12341,15498,0.030,551
2019-07-02T16:22:30,42.805,6.029,CST-1368DR,8819,12337,15494,0.031,550
2019-07-02T16:25:31,42.805,6.029,CST-1368DR,8819,12340,15497,0.031,551
2019-07-02T16:28:33,42.805,6.029,CST-1368DR,8819,12340,15497,0.031,551
2019-07-02T16:31:34,42.805,6.029,CST-1368DR,8819,12340,15498,0.030,551
2019-07-02T16:34:36,42.805,6.029,CST-1368DR,8819,12338,15495,0.031,551
2019-07-02T16:37:37,42.805,6.029,CST-1368DR,8819,12340,15498,0.030,551